Wind_Speed
47 49 48 48 47 49 52 55 56 55 56 55 55 56 57 57 55 55 56 55 54 53 50 48 44 42 37 38 32 31 24 31
49 49 50 50 49 51 53 54 54 54 55 54 54 56 59 60 62 60 58 55 54 56 52 48 43 43 38 39 36 29 25 24
50 51 52 51 50 51 53 54 55 56 56 55 56 58 59 61 61 59 58 57 55 54 54 53 46 42 40 38 36 32 25 27
50 50 50 51 52 52 54 55 58 60 61 60 61 61 61 60 59 58 59 60 59 58 53 54 52 47 47 40 37 37 27 27
49 50 51 52 54 56 58 60 61 62 63 64 65 65 64 63 61 58 56 57 59 59 57 53 56 54 51 53 49 43 38 29
51 52 54 56 59 61 60 60 59 59 59 58 59 60 62 63 63 65 63 62 61 61 60 59 57 58 56 54 56 54 49 40
53 55 57 59 61 60 56 55 57 56 58 58 62 65 67 69 70 69 69 68 68 65 64 63 62 61 61 64 61 61 56 50
52 52 53 53 53 53 53 53 53 56 60 63 65 70 71 72 73 74 74 75 74 74 71 69 68 67 65 65 69 71 67 60
46 49 49 51 50 53 55 55 57 63 67 69 70 71 74 76 79 81 82 82 82 81 80 79 76 72 71 71 72 75 76 75
51 53 53 54 57 59 59 61 65 72 74 77 80 81 83 85 86 86 87 87 87 87 86 85 85 82 78 78 76 77 78 76
54 54 53 54 59 61 64 72 75 79 82 85 87 90 92 95 96 97 98 98 97 93 92 93 92 89 88 85 84 84 82 81
53 56 60 62 67 70 76 79 83 86 89 90 95 99 99 100 100 101 103 106 106 106 102 97 95 97 93 95 92 90 90 85
63 63 67 70 72 77 82 83 89 92 95 98 102 105 106 108 109 110 109 107 110 110 110 105 100 99 100 95 99 98 97 95
68 72 73 75 77 80 85 90 93 97 103 106 107 110 114 115 118 113 104 104 105 104 102 102 104 103 101 100 96 104 103 100
73 78 80 82 86 88 93 95 98 104 107 110 111 118 116 117 119 109 100 98 94 89 89 91 93 96 95 93 96 100 103 109
78 81 84 86 90 94 97 101 106 109 113 114 119 121 114 110 106 94 85 84 79 75 75 74 78 83 86 88 93 94 101 104
81 85 88 92 95 99 103 107 111 112 117 120 123 113 105 98 84 77 70 68 66 63 61 61 65 69 74 78 85 91 97 102
85 89 91 95 99 104 108 111 114 117 122 124 113 102 91 80 71 62 57 54 54 52 49 49 53 57 61 67 73 81 92 98
93 94 98 102 105 110 114 114 117 121 123 115 102 89 80 71 62 55 50 46 45 44 44 44 45 47 51 58 65 70 81 91
97 99 103 107 109 112 114 119 121 129 114 102 88 79 69 62 56 48 42 39 38 38 37 38 39 41 42 47 55 61 68 78
Wind_Direction
287 285 283 282 283 284 284 283 284 285 285 284 282 282 282 282 282 282 282 282 281 284 281 280 280 282 279 284 281 283 278 271
288 285 285 284 282 283 285 285 286 287 284 284 282 281 282 282 282 281 280 279 278 282 281 276 274 271 271 270 271 269 281 277
288 288 286 283 282 282 284 285 285 285 284 283 282 282 283 284 283 282 281 279 278 277 277 276 268 267 266 264 261 264 275 276
285 285 283 282 281 282 283 283 283 283 282 283 283 284 285 285 286 286 285 282 279 277 274 272 269 265 258 260 254 259 262 276
282 281 281 281 280 281 282 282 282 282 282 282 282 282 282 283 282 282 282 281 279 277 275 270 267 263 261 257 253 252 259 265
280 279 280 281 281 282 283 283 283 283 283 284 287 287 285 285 285 283 282 280 276 273 270 269 266 263 254 255 259 258 256 253
284 284 282 282 284 285 284 283 284 286 288 289 289 290 289 286 284 284 285 284 281 276 272 267 265 261 257 250 250 253 254 251
289 287 286 285 286 286 290 290 289 289 289 288 287 288 286 284 283 282 281 279 278 275 273 270 264 260 256 252 247 246 246 250
293 290 284 288 290 292 293 291 288 291 292 292 291 290 288 286 286 283 281 279 278 272 269 267 266 262 255 253 249 248 245 245
294 293 293 292 292 292 290 287 289 297 297 297 296 295 294 292 289 286 284 283 281 278 273 266 262 261 257 250 248 248 246 243
298 294 291 293 295 293 293 297 299 299 298 299 300 301 299 296 294 292 289 288 286 277 273 269 265 258 253 251 248 245 246 243
300 296 295 298 299 299 302 302 302 303 301 299 299 300 300 297 293 290 288 286 285 283 279 272 265 260 254 246 246 243 243 241
296 298 300 300 302 303 304 304 303 302 301 300 301 301 300 299 296 292 289 288 285 281 278 273 264 257 255 250 242 239 239 239
299 299 302 304 303 301 304 304 302 302 301 302 302 303 300 298 297 293 289 286 280 275 272 268 263 259 253 249 243 238 234 237
300 299 303 303 304 304 305 304 303 303 303 302 301 303 301 300 297 294 291 283 278 274 269 267 262 260 255 248 243 237 234 232
298 300 301 302 304 305 304 305 306 307 306 305 303 304 303 301 297 293 289 284 281 277 273 267 262 257 254 249 241 237 234 232
299 301 302 304 303 304 304 306 306 307 309 307 305 305 305 300 298 293 289 285 280 276 272 266 262 257 253 249 242 237 234 231
299 302 303 302 303 305 306 305 307 309 309 309 305 307 306 303 300 298 293 288 284 279 274 268 262 258 253 249 243 238 233 231
299 301 303 304 305 305 305 307 308 310 310 309 309 310 308 305 304 301 298 292 286 281 276 270 264 259 252 247 244 239 234 231
302 302 303 305 306 307 309 309 309 311 310 309 312 310 308 306 304 302 296 293 288 285 281 275 267 260 253 245 243 239 234 232
Height
10779 10777 10774 10772 10770 10767 10764 10761 10760 10756 10752 10752 10751 10748 10748 10747 10747 10747 10747 10748 10747 10746 10745 10744 10741 10738 10739 10739 10739 10737 10735 10733
10770 10766 10765 10762 10760 10757 10754 10751 10750 10745 10744 10742 10740 10739 10737 10736 10734 10735 10735 10736 10736 10734 10733 10734 10732 10730 10731 10731 10731 10730 10729 10727
10760 10757 10755 10752 10750 10746 10744 10741 10739 10737 10734 10732 10730 10728 10726 10724 10722 10721 10722 10723 10724 10723 10722 10722 10723 10721 10721 10722 10722 10722 10722 10721
10750 10746 10744 10741 10739 10736 10733 10731 10728 10725 10723 10723 10719 10716 10714 10712 10710 10708 10708 10709 10710 10709 10710 10711 10712 10713 10713 10713 10713 10714 10714 10713
10739 10736 10734 10731 10728 10725 10722 10720 10718 10714 10710 10709 10707 10704 10701 10699 10698 10697 10696 10696 10695 10696 10697 10699 10700 10702 10703 10701 10704 10704 10704 10706
10729 10725 10722 10719 10716 10712 10710 10708 10705 10702 10700 10698 10693 10691 10689 10687 10684 10682 10681 10682 10681 10682 10683 10683 10686 10689 10692 10690 10690 10692 10694 10696
10716 10712 10709 10706 10703 10700 10697 10694 10691 10689 10687 10686 10681 10677 10674 10671 10668 10667 10667 10666 10665 10665 10667 10668 10670 10674 10676 10677 10678 10678 10679 10684
10704 10701 10698 10695 10692 10688 10685 10682 10679 10676 10673 10670 10667 10661 10658 10655 10652 10651 10650 10648 10647 10648 10648 10650 10652 10655 10657 10660 10660 10661 10667 10669
10693 10689 10685 10682 10678 10675 10672 10669 10666 10662 10658 10656 10652 10648 10642 10638 10634 10630 10628 10626 10625 10626 10627 10628 10630 10633 10638 10640 10641 10642 10649 10654
10682 10678 10673 10670 10666 10662 10658 10655 10651 10645 10640 10635 10630 10627 10622 10617 10613 10608 10604 10601 10599 10598 10600 10603 10608 10609 10614 10617 10621 10621 10625 10633
10670 10665 10661 10657 10652 10648 10644 10639 10633 10627 10621 10614 10608 10601 10596 10590 10585 10581 10576 10569 10564 10566 10568 10570 10573 10579 10587 10591 10596 10599 10601 10609
10657 10652 10648 10643 10637 10632 10626 10620 10612 10605 10599 10593 10586 10578 10570 10563 10557 10552 10547 10542 10536 10528 10525 10528 10534 10541 10549 10562 10566 10572 10578 10587
10644 10638 10634 10629 10622 10614 10606 10600 10590 10583 10575 10567 10559 10550 10540 10530 10521 10514 10509 10505 10498 10490 10484 10483 10489 10498 10508 10522 10534 10543 10547 10556
10628 10620 10616 10612 10604 10597 10589 10578 10569 10559 10549 10539 10530 10520 10508 10497 10484 10475 10470 10462 10451 10443 10441 10441 10443 10449 10465 10478 10493 10503 10519 10530
10611 10601 10597 10591 10583 10576 10568 10558 10549 10537 10526 10514 10502 10491 10477 10463 10442 10428 10424 10410 10406 10405 10403 10404 10406 10409 10420 10440 10454 10465 10486 10497
10594 10586 10580 10573 10564 10557 10547 10537 10524 10512 10499 10486 10471 10457 10444 10425 10404 10392 10384 10375 10373 10372 10372 10373 10373 10377 10386 10400 10417 10434 10446 10462
10579 10568 10562 10555 10544 10536 10524 10513 10501 10488 10474 10457 10440 10424 10410 10389 10377 10363 10357 10351 10347 10346 10347 10346 10346 10351 10360 10370 10386 10400 10415 10430
10560 10551 10542 10533 10525 10514 10502 10490 10476 10461 10445 10428 10408 10395 10378 10364 10351 10343 10336 10331 10328 10326 10326 10326 10326 10329 10337 10346 10357 10371 10384 10401
10540 10533 10522 10511 10503 10492 10479 10465 10450 10435 10418 10400 10383 10369 10353 10342 10333 10325 10319 10314 10311 10310 10309 10310 10310 10313 10320 10327 10334 10347 10357 10375
10519 10509 10500 10489 10479 10467 10453 10437 10424 10408 10392 10373 10363 10349 10338 10327 10319 10313 10307 10303 10300 10298 10297 10297 10298 10300 10305 10312 10316 10326 10338 10352